Falfurrias, TX

10:10 AM CST on December 06, 2019 (GMT -0600)
Falfurrias

Weather History for KBKS - October, 2019

Change the Weather History Date:

Thursday, October 10, 2019

  Actual Average (KNQI) Record (KNQI)
Temperature  
Mean Temperature 87 °F -  
Max Temperature 97 °F 81 °F 93 °F (2005)
Min Temperature 77 °F 64 °F 44 °F (2000)
Cooling Degree Days 22    
Growing Degree Days 37 (Base 50)    
Moisture  
Dew Point 73 °F    
Average Humidity 69    
Maximum Humidity 89    
Minimum Humidity 37    
Precipitation  
Precipitation 0.00 in - - ()
Sea Level Pressure  
Sea Level Pressure 29.81 in    
Wind  
Wind Speed 9 mph ()    
Max Wind Speed 17 mph    
Max Gust Speed 25 mph    
Visibility 10.0 miles    
Events      
Averages and records for this station are not official NWS values.
T = Trace of Precipitation, MM = Missing Value Source: Averaged Metar Reports

Daily Weather History Graph

Daily Weather History Graph

Search for Another Location

Airport or City:

Astronomy

Oct. 10, 2019 Rise Set
Actual Time 7:29 AM CDT 7:09 PM CDT
Civil Twilight 7:06 AM CDT 7:32 PM CDT
Nautical Twilight 6:39 AM CDT 7:59 PM CDT
Astronomical Twilight 6:12 AM CDT 8:26 PM CDT
Moon 5:49 PM CDT (10/10) 4:39 AM CDT (10/10)
Length of Visible Light 12h 26m
Length of Day
11h 39m
Waxing Gibbous, 91% of the Moon is Illuminated
Oct 10
Waxing Gibbous
Oct 13
Full
Oct 21
Last Quarter
Oct 27
New
Nov 4
First Quarter

Hourly Weather History & Observations

Time (CDT) Temp. Heat Index Dew Point Humidity Pressure Visibility Wind Dir Wind Speed Gust Speed Precip Events Conditions
12:15 AM 79.7 °F - 74.5 °F 84% 29.86 in 10.0 mi SE 6.9 mph - N/A   Scattered Clouds
12:35 AM 79.7 °F - 74.7 °F 84% 29.85 in 10.0 mi SE 8.1 mph - N/A   Clear
12:55 AM 79.2 °F - 74.7 °F 86% 29.85 in 10.0 mi SE 6.9 mph - N/A   Clear
1:15 AM 79.2 °F - 74.8 °F 87% 29.85 in 10.0 mi SE 8.1 mph - N/A   Clear
1:35 AM 79.3 °F - 74.8 °F 86% 29.85 in 10.0 mi SE 8.1 mph - N/A   Clear
1:55 AM 79.2 °F - 74.7 °F 86% 29.85 in 10.0 mi SE 8.1 mph - N/A   Clear
2:15 AM 79.2 °F - 74.7 °F 86% 29.85 in 10.0 mi SE 8.1 mph - N/A   Clear
2:35 AM 78.8 °F - 74.7 °F 87% 29.85 in 10.0 mi SE 6.9 mph - N/A   Clear
2:55 AM 78.8 °F - 74.7 °F 87% 29.85 in 10.0 mi SE 8.1 mph - N/A   Clear
3:15 AM 78.8 °F - 74.5 °F 87% 29.84 in 10.0 mi SE 8.1 mph - N/A   Clear
3:35 AM 78.8 °F - 74.7 °F 87% 29.84 in 10.0 mi SE 9.2 mph - N/A   Scattered Clouds
3:55 AM 78.8 °F - 74.5 °F 87% 29.83 in 10.0 mi SE 8.1 mph - N/A   Scattered Clouds
4:15 AM 78.4 °F - 74.5 °F 88% 29.83 in 10.0 mi SE 5.8 mph - N/A   Clear
4:55 AM 78.1 °F - 74.5 °F 89% 29.83 in 10.0 mi SE 4.6 mph - N/A   Clear
5:15 AM 78.1 °F - 74.5 °F 89% 29.83 in 10.0 mi SE 6.9 mph - N/A   Scattered Clouds
5:35 AM 78.1 °F - 74.5 °F 89% 29.83 in 10.0 mi SE 5.8 mph - N/A   Scattered Clouds
5:55 AM 78.1 °F - 74.5 °F 89% 29.84 in 10.0 mi SE 5.8 mph - N/A   Clear
6:15 AM 77.9 °F - 74.3 °F 89% 29.84 in 10.0 mi ESE 4.6 mph - N/A   Clear
6:35 AM 77.9 °F - 74.5 °F 89% 29.84 in 10.0 mi SE 6.9 mph - N/A   Clear
6:55 AM 78.1 °F - 74.5 °F 89% 29.84 in 10.0 mi SE 6.9 mph - N/A   Scattered Clouds
7:15 AM 78.3 °F - 74.5 °F 88% 29.84 in 10.0 mi SE 6.9 mph - N/A   Clear
7:35 AM 78.4 °F - 74.5 °F 88% 29.85 in 10.0 mi SE 6.9 mph - N/A   Scattered Clouds
7:55 AM 78.8 °F - 74.7 °F 87% 29.85 in 10.0 mi SE 6.9 mph - N/A   Scattered Clouds
8:15 AM 79.5 °F - 75.2 °F 87% 29.85 in 10.0 mi SE 6.9 mph - N/A   Clear
8:35 AM 80.8 °F 86.5 °F 75.2 °F 83% 29.86 in 10.0 mi SE 6.9 mph - N/A   Clear
8:55 AM 82.0 °F 88.9 °F 75.4 °F 80% 29.86 in 10.0 mi SE 9.2 mph - N/A   Clear
9:15 AM 83.5 °F 91.6 °F 75.7 °F 77% 29.86 in 10.0 mi SE 10.4 mph 17.3 mph N/A   Scattered Clouds
9:35 AM 85.6 °F 95.0 °F 75.7 °F 72% 29.87 in 10.0 mi SSE 13.8 mph 18.4 mph N/A   Scattered Clouds
9:55 AM 86.5 °F 96.4 °F 75.6 °F 70% 29.87 in 10.0 mi SSE 15.0 mph 19.6 mph N/A   Scattered Clouds
10:15 AM 87.6 °F 97.1 °F 75.2 °F 66% 29.87 in 10.0 mi SSE 15.0 mph 21.9 mph N/A   Scattered Clouds
10:35 AM 88.2 °F 96.9 °F 74.1 °F 63% 29.87 in 10.0 mi South 15.0 mph 24.2 mph N/A   Mostly Cloudy
10:55 AM 88.3 °F 97.9 °F 74.7 °F 64% 29.87 in 10.0 mi South 15.0 mph 20.7 mph N/A   Mostly Cloudy
11:15 AM 89.6 °F 98.2 °F 73.4 °F 59% 29.87 in 10.0 mi South 16.1 mph 24.2 mph N/A   Scattered Clouds
11:35 AM 91.0 °F 99.3 °F 72.7 °F 55% 29.86 in 10.0 mi SSE 15.0 mph 25.3 mph N/A   Scattered Clouds
11:55 AM 93.2 °F 101.7 °F 72.5 °F 51% 29.86 in 10.0 mi SSE 16.1 mph 19.6 mph N/A   Scattered Clouds
12:15 PM 92.7 °F 99.4 °F 71.2 °F 49% 29.85 in 10.0 mi South 16.1 mph 21.9 mph N/A   Scattered Clouds
12:35 PM 93.9 °F 101.5 °F 71.6 °F 48% 29.84 in 10.0 mi SSE 17.3 mph 24.2 mph N/A   Scattered Clouds
12:55 PM 93.0 °F 100.1 °F 71.4 °F 49% 29.83 in 10.0 mi SSE 15.0 mph 20.7 mph N/A   Scattered Clouds
1:15 PM 95.2 °F 102.3 °F 71.1 °F 45% 29.82 in 10.0 mi South 17.3 mph - N/A   Scattered Clouds
1:35 PM 95.2 °F 101.7 °F 70.3 °F 44% 29.80 in 10.0 mi SE 11.5 mph 18.4 mph N/A   Clear
1:55 PM 95.7 °F 102.1 °F 70.2 °F 43% 29.79 in 10.0 mi SSE 17.3 mph 21.9 mph N/A   Clear
2:15 PM 96.4 °F 103.0 °F 70.2 °F 42% 29.78 in 10.0 mi SSE 11.5 mph 20.7 mph N/A   Clear
2:35 PM 96.6 °F 102.7 °F 69.6 °F 41% 29.77 in 10.0 mi SSE 15.0 mph 21.9 mph N/A   Clear
2:55 PM 97.0 °F 103.5 °F 70.0 °F 41% 29.76 in 10.0 mi SE 12.7 mph - N/A   Clear
3:15 PM 97.2 °F 103.2 °F 69.3 °F 40% 29.75 in 10.0 mi SE 15.0 mph 20.7 mph N/A   Scattered Clouds
3:35 PM 97.5 °F 103.3 °F 68.9 °F 39% 29.75 in 10.0 mi SSE 17.3 mph 23.0 mph N/A   Clear
3:55 PM 97.7 °F 103.6 °F 68.5 °F 39% 29.74 in 10.0 mi SE 13.8 mph 19.6 mph N/A   Clear
4:15 PM 97.2 °F 102.5 °F 68.5 °F 39% 29.73 in 10.0 mi SE 11.5 mph 24.2 mph N/A   Clear
4:35 PM 97.2 °F 101.9 °F 67.6 °F 38% 29.73 in 10.0 mi SSE 13.8 mph - N/A   Clear
4:55 PM 97.5 °F 102.0 °F 67.1 °F 37% 29.73 in 10.0 mi SE 16.1 mph 24.2 mph N/A   Clear
5:15 PM 96.8 °F 100.7 °F 66.9 °F 37% 29.73 in 10.0 mi SSE 15.0 mph 19.6 mph N/A   Clear
5:35 PM 96.6 °F 100.9 °F 67.1 °F 38% 29.73 in 10.0 mi SSE 16.1 mph - N/A   Clear
5:55 PM 95.9 °F 100.1 °F 67.5 °F 39% 29.73 in 10.0 mi SE 12.7 mph 17.3 mph N/A   Clear
6:15 PM 93.6 °F 104.5 °F 74.7 °F 54% 29.73 in 10.0 mi SE 11.5 mph - N/A   Scattered Clouds
6:35 PM 91.4 °F 102.5 °F 75.2 °F 59% 29.74 in 10.0 mi ESE 13.8 mph 17.3 mph N/A   Scattered Clouds
6:55 PM 89.8 °F 100.3 °F 75.2 °F 62% 29.74 in 10.0 mi ESE 12.7 mph 18.4 mph N/A   Clear
7:15 PM 88.2 °F 98.0 °F 75.2 °F 65% 29.75 in 10.0 mi ESE 13.8 mph 19.6 mph N/A   Clear
7:35 PM 86.9 °F 96.4 °F 75.2 °F 68% 29.76 in 10.0 mi ESE 11.5 mph 17.3 mph N/A   Clear
7:55 PM 86.4 °F 96.0 °F 75.4 °F 70% 29.77 in 10.0 mi SE 11.5 mph 17.3 mph N/A   Clear
8:15 PM 85.5 °F 94.6 °F 75.6 °F 72% 29.78 in 10.0 mi ESE 10.4 mph 17.3 mph N/A   Clear
8:35 PM 85.1 °F 93.7 °F 75.2 °F 72% 29.78 in 10.0 mi SE 12.7 mph 18.4 mph N/A   Clear
8:55 PM 84.6 °F 92.4 °F 74.5 °F 72% 29.79 in 10.0 mi SE 13.8 mph 18.4 mph N/A   Clear
9:15 PM 84.2 °F 91.9 °F 74.8 °F 73% 29.80 in 10.0 mi SE 11.5 mph 17.3 mph N/A   Clear
9:35 PM 83.7 °F 91.7 °F 75.2 °F 76% 29.80 in 10.0 mi SE 10.4 mph 17.3 mph N/A   Clear
9:55 PM 83.5 °F 91.6 °F 75.6 °F 77% 29.81 in 10.0 mi SE 11.5 mph 16.1 mph N/A   Clear
10:15 PM 83.3 °F 91.4 °F 75.7 °F 78% 29.82 in 10.0 mi SE 11.5 mph - N/A   Clear
10:35 PM 82.8 °F 90.4 °F 75.7 °F 79% 29.82 in 10.0 mi SE 9.2 mph - N/A   Clear
10:55 PM 82.4 °F 90.1 °F 76.1 °F 81% 29.82 in 10.0 mi SE 9.2 mph - N/A   Clear
11:15 PM 82.0 °F 89.4 °F 76.1 °F 82% 29.82 in 10.0 mi SE 9.2 mph 16.1 mph N/A   Clear
11:35 PM 81.9 °F 89.2 °F 76.1 °F 83% 29.82 in 10.0 mi SE 10.4 mph - N/A   Clear
11:55 PM 81.5 °F 88.5 °F 76.1 °F 84% 29.82 in 10.0 mi SE 11.5 mph - N/A   Scattered Clouds